West Chicago, IL

10:28 AM CST on February 13, 2016 (GMT -0600)
Du Page

Weather History for KDPA - November, 2011

Change the Weather History Date:

Tuesday, November 1, 2011

  Actual Average Record
Temperature  
Mean Temperature 49 °F 47 °F  
Max Temperature 64 °F 56 °F 74 °F (2000)
Min Temperature 34 °F 37 °F 24 °F (1996)
Degree Days  
Heating Degree Days 16 18  
Month to date heating degree days 18  
Since 1 July heating degree days 529  
Cooling Degree Days 0 0  
Month to date cooling degree days 0  
Year to date cooling degree days 814  
Moisture  
Dew Point 37 °F    
Average Humidity 66    
Maximum Humidity 89    
Minimum Humidity 46    
Precipitation  
Precipitation 0.00 in 0.10 in 0.88 in (2004)
Month to date precipitation 0.10  
Year to date precipitation 32.21  
Sea Level Pressure  
Sea Level Pressure 30.09 in    
Wind  
Wind Speed 8 mph (SSE)    
Max Wind Speed 16 mph    
Max Gust Speed -    
Visibility 9 miles    
Events      
T = Trace of Precipitation, MM = Missing Value Source: NWS Daily Summary

Daily Weather History Graph

Daily Weather History Graph

Search for Another Location

Airport or City:

Trip Planner

Search our weather history database for the weather conditions in past years. The results will help you decide how hot, cold, wet, or windy it might be!

Date:

Astronomy

Nov. 01, 2011 Rise Set
Actual Time 7:25 AM CDT 5:47 PM CDT
Civil Twilight 6:56 AM CDT 6:16 PM CDT
Nautical Twilight 6:23 AM CDT 6:49 PM CDT
Astronomical Twilight 5:50 AM CDT 7:21 PM CDT
Moon 1:12 PM CDT (11/1) 11:28 PM CDT (11/1)
Length of Visible Light 11h 20m
Length of Day
10h 22m
Waxing Crescent, 40% of the Moon is Illuminated
Nov 1
Waxing Crescent
Nov 2
First Quarter
Nov 10
Full
Nov 18
Last Quarter
Nov 25
New

Hourly Weather History & Observations

Time (CDT) Temp. Windchill Dew Point Humidity Pressure Visibility Wind Dir Wind Speed Gust Speed Precip Events Conditions
12:52 AM 34.0 °F 29.8 °F 30.9 °F 89% 30.14 in 7.0 mi SE 4.6 mph - N/A   Clear
1:52 AM 36.0 °F 33.3 °F 32.0 °F 86% 30.15 in 7.0 mi SSE 3.5 mph - N/A   Clear
2:52 AM 34.0 °F 29.8 °F 30.0 °F 85% 30.15 in 6.0 mi SE 4.6 mph - N/A   Clear
3:52 AM 34.0 °F 28.8 °F 30.9 °F 89% 30.15 in 7.0 mi SSE 5.8 mph - N/A   Clear
4:52 AM 34.0 °F 28.8 °F 30.0 °F 85% 30.15 in 7.0 mi SSE 5.8 mph - N/A   Clear
5:52 AM 36.0 °F 29.6 °F 30.9 °F 82% 30.15 in 7.0 mi SE 8.1 mph - N/A   Clear
6:52 AM 36.0 °F 31.1 °F 30.9 °F 82% 30.15 in 8.0 mi SE 5.8 mph - N/A   Clear
7:52 AM 37.0 °F 32.4 °F 32.0 °F 82% 30.15 in 7.0 mi SE 5.8 mph - N/A   Clear
8:52 AM 42.1 °F 36.1 °F 34.0 °F 73% 30.15 in 7.0 mi SSE 10.4 mph - N/A   Clear
9:52 AM 46.9 °F - 35.1 °F 63% 30.14 in 9.0 mi SSE 11.5 mph - N/A   Clear
10:52 AM 51.1 °F - 35.1 °F 54% 30.12 in 10.0 mi SSE 16.1 mph - N/A   Clear
11:52 AM 55.9 °F - 37.9 °F 51% 30.11 in 10.0 mi SSE 15.0 mph - N/A   Clear
12:52 PM 57.9 °F - 39.0 °F 49% 30.08 in 10.0 mi SSE 11.5 mph - N/A   Clear
2:52 PM 63.0 °F - 42.1 °F 46% 30.04 in 10.0 mi SSE 13.8 mph - N/A   Clear
3:52 PM 64.0 °F - 44.1 °F 48% 30.02 in 10.0 mi SSE 13.8 mph - N/A   Clear
4:52 PM 63.0 °F - 44.1 °F 50% 30.01 in 10.0 mi SSE 12.7 mph - N/A   Clear
5:52 PM 61.0 °F - 44.1 °F 54% 30.01 in 10.0 mi SSE 11.5 mph - N/A   Clear
6:52 PM 57.0 °F - 44.1 °F 62% 30.02 in 10.0 mi SSE 8.1 mph - N/A   Clear
7:52 PM 55.9 °F - 43.0 °F 62% 30.03 in 10.0 mi SSE 8.1 mph - N/A   Clear
8:52 PM 55.0 °F - 42.1 °F 62% 30.04 in 10.0 mi SSE 10.4 mph - N/A   Clear
9:52 PM 57.0 °F - 39.9 °F 53% 30.04 in 10.0 mi South 15.0 mph - N/A   Clear
10:52 PM 55.0 °F - 37.9 °F 53% 30.05 in 10.0 mi South 12.7 mph - N/A   Clear
11:52 PM 52.0 °F - 37.9 °F 59% 30.06 in 10.0 mi South 10.4 mph - N/A   Clear